Location: Kermapucano
(48.0667°N, 3.3000°W)
Time: 19:55:11
(UTC+00:00)

deb Chang Zheng 4 - Pass Details

Date: 29 November 2020
Orbit: 601 x 623 km, 98.6° (Epoch: 27 January)

Event Time Altitude Azimuth Distance (km) Brightness Sun altitude
Rises 05:24:19 0° 13° (NNE) 2,911 7.1 -22.0°
Reaches altitude 10° 05:26:31 10° 12° (NNE) 2,003 6.2 -21.6°
Maximum altitude 05:30:52 78° 286° (WNW) 645 3.4 -20.9°
Drops below altitude 10° 05:35:12 10° 201° (SSW) 1,995 6.0 -20.2°
Sets 05:37:23 0° 200° (SSW) 2,898 6.9 -19.8°
